📊 Raw Sensor Data

Showing records 34451 to 34475 of 84,852 total

ID Distance (ft) Battery V Battery A Int Temp (°F) Int Humid (%) Ext Temp (°F) Solar V RSSI SNR Time Stamp
50414 15.8 3.82 0 102 47 90 5.10 -71 8 08/27/2025 05:15 PM
50413 15.8 3.82 0 103 46 92 5.10 -71 8 08/27/2025 05:00 PM
50412 15.9 3.82 0 103 46 92 5.10 -71 8 08/27/2025 04:45 PM
50411 15.8 4.08 0 103 46 90 5.10 -70 8 08/27/2025 04:30 PM
50410 15.9 4.04 0 104 45 89 5.10 -72 7 08/27/2025 04:15 PM
50409 15.8 3.82 0 104 45 92 5.10 -71 8 08/27/2025 04:00 PM
50408 15.8 4.09 0 104 45 93 5.10 -70 8 08/27/2025 03:45 PM
50407 15.8 3.82 0 106 43 92 5.10 -71 8 08/27/2025 03:30 PM
50406 15.9 3.82 0 106 42 95 5.10 -70 8 08/27/2025 03:15 PM
50405 15.8 3.82 0 105 42 93 5.10 -71 8 08/27/2025 03:00 PM
50404 15.8 3.82 0 104 41 93 5.10 -71 8 08/27/2025 02:45 PM
50403 15.8 3.83 0 102 41 91 5.20 -70 8 08/27/2025 02:30 PM
50402 15.8 4.07 0 100 41 90 5.10 -70 8 08/27/2025 02:15 PM
50401 15.8 3.83 0 99 41 90 5.10 -70 8 08/27/2025 02:00 PM
50400 15.8 3.82 0 97 41 89 5.10 -70 7 08/27/2025 01:45 PM
50399 15.8 3.82 0 95 41 87 5.20 -70 8 08/27/2025 01:30 PM
50398 15.7 3.82 0 93 41 85 5.10 -71 7 08/27/2025 01:15 PM
50397 15.8 4.02 0 92 42 83 5.10 -71 8 08/27/2025 01:00 PM
50396 15.8 3.83 0 91 41 83 5.10 -71 7 08/27/2025 12:45 PM
50395 15.8 3.82 0 90 41 84 5.10 -66 7 08/27/2025 12:30 PM
50394 15.8 3.94 0 88 42 81 5.10 -67 8 08/27/2025 12:15 PM
50393 15.8 3.86 0 87 41 84 5.10 -67 8 08/27/2025 12:00 PM
50392 15.8 3.86 0 85 42 84 5.10 -66 8 08/27/2025 11:45 AM
50391 15.8 3.86 0 84 42 81 5.10 -65 8 08/27/2025 11:30 AM
50390 15.8 3.86 6 83 42 82 5.10 -66 7 08/27/2025 11:15 AM